Location: Ecklingerode
(51.5036°N, 10.3122°E)
Time: 01:12:09
(UTC+00:00)

NOSS 3-4 (C) - Pass Details

Date: 29 October 2020
Orbit: 886 x 1326 km, 63.4° (Epoch: 06 November)

Event Time Altitude Azimuth Distance (km) Brightness Sun altitude
Rises 17:52:18 0° 313° (NW) 3,749 7.3 -18.5°
Reaches altitude 10° 17:54:49 10° 316° (NW) 2,853 6.6 -18.9°
Maximum altitude 18:01:36 73° 41° (NE) 1,178 3.7 -19.9°
Enters shadow 18:05:43 29° 120° (ESE) 2,002 4.6 -20.6°
